Location: Austin
(30.3000°N, 97.7500°W)
Time: 08:01:54
(UTC-06:00)

IRS-P3 - Pass Details

Date: 10 January 2026
Orbit: 810 x 815 km, 99.0° (Epoch: 22 January)

Event Time Altitude Azimuth Distance (km) Brightness Sun altitude
Rises 18:35:12 0° 162° (SSE) 3,315 7.3 -10.1°
Reaches altitude 10° 18:37:31 10° 161° (SSE) 2,387 6.6 -10.6°
Maximum altitude 18:42:48 79° 76° (ENE) 828 4.0 -11.6°
Drops below altitude 10° 18:48:06 10° 350° (N) 2,398 6.5 -12.7°
Sets 18:50:26 0° 349° (N) 3,333 7.2 -13.2°
